星链-32236 (STARLINK-32236)

导读

STARLINK-32236是美国SpaceX公司星链(Starlink)星座的第二代卫星,于2024年8月10日发射入轨。星链星座旨在构建全球低轨宽带互联网,为偏远地区提供高速低延迟网络服务。该星配备增强型相控阵天线与激光星间链路,单星容量超100Gbps,运行于340-614公里近地轨道,具备自主轨道机动与避碰能力,退役后可再入大气层完全销毁,减少空间碎片影响,助力星链实现全球完整覆盖。

基本信息
目录编号:
60418
目录名称:
STARLINK-32236
国际标识:
2024-141W
轨道中心:
EARTH
卫星名称:
星链-32236 (STARLINK-32236)
卫星全名:
星链-32236 (STARLINK-32236)
卫星状态:
在轨 (已飞行763 天)
发射日期:
2024-08-10 UTC
国别 :
美国 (US)
星等 :
--
该卫星已列入 空间交会检测服务 Space Conjunction Data Service (SCDS) ,当前飞行风险评估等级: 高风险
轨道信息
数据来源 国际轨道数据 AOE轨道数据
星历时间 2026-09-12T02:37:47+0800
11小时前
查看轨道信息
2026-09-06T22:00:00+0800
5天前
查看轨道信息
半长轴 6840.891km 6840.844km
偏心率 0.0001208 0.0000988
轨道倾角 53.159° 53.159°
近地点辐角 99.764° 69.238°
升交点赤经 94.519° 118.799°
平近点角 260.350° 30.311°
近地点 461.927km 462.031km
远地点 463.581km 463.383km
周期 93.849分钟 93.848分钟
每日圈数 15.343831 15.34399
详细信息
卫星平台:
Starlink v2.0 mini
运营商:
太空探索技术公司
运营商所在国:
美国
制造商(研发单位):
太空探索技术公司
制造商所在国:
美国
使用方式:
暂无
卫星简介
星链(Starlink)计划是由太空探索技术公司(SpaceX)提出的一个巨型低轨卫星互联网星座项目,计划在2019年至2024年间在太空搭建由约1.2万颗卫星组成的“星链”网络,其中1584颗将部署在地球上空550千米处的近地轨道,并从2020年开始工作。该卫星仍在工作。
2D轨道图
3D轨道图
轨道高度分析图
轨道倾角分析图
轨道综合分析图
查看轨道综合分析图
交会数据列表
事件ID 空间交会对象 最接近时刻(TCA) 交会距离 交会风险概率(CRP) 交会风险指数(CRI) 操作
CDM_260914-162806-041806-535621
2026-09-14T
16:28:54+0000
0.315 km
远距离
3.430566E-4 高风险 0.86
CDM_260914-031106-041806-535621
2026-09-14T
03:11:41+0000
0.357 km
远距离
2.750706E-4 高风险 0.84
CDM_260914-194906-041806-828421
2026-09-14T
19:49:26+0000
1.199 km
极远距离
9.133317E-6 低风险 0.54
CDM_260914-044506-041806-535621
2026-09-14T
04:45:29+0000
1.924 km
极远距离
2.007211E-6 低风险 0.41
CDM_260914-180206-041806-535621
2026-09-14T
18:02:42+0000
2.320 km
极远距离
1.315954E-6 低风险 0.37
CDM_260914-013706-041806-535621
2026-09-14T
01:37:54+0000
2.365 km
极远距离
1.270086E-6 低风险 0.37
CDM_260914-012205-246306-041821
2026-09-14T
01:22:47+0000
2.987 km
极远距离
1.204861E-6 低风险 0.37
CDM_260914-181506-041806-828421
2026-09-14T
18:15:39+0000
2.631 km
极远距离
1.101647E-6 低风险 0.36
CDM_260914-145506-041806-535621
2026-09-14T
14:55:07+0000
2.608 km
极远距离
1.073008E-6 低风险 0.36
CDM_260914-053605-235306-041821
2026-09-14T
05:36:35+0000
2.721 km
极远距离
5.810066E-7 极低风险 0.3
与全量物体交会距离演化趋势
与全量物体交会风险概率演化趋势